Home > Time Zones > World Clock > Weather > Iran > Rasht > Past weeks

Flag for Iran Weather past 2 weeks in Rasht, Iran

Now
54 °F

Fog.


Feels Like: 53 °F
Forecast: 45 / 51 °F
Wind: 5 mph from Northwest

Location: Rasht Airport

Current Time: Mar 29, 2015 at 6:32:55 AM

Latest Report: Mar 29, 2015 at 5:30 AM


Visibility: 3 mi

Pressure: 30.04 "Hg

Humidity: 88%

Dew point: 50 °F

Location of RashtLocation

Historic Weather in Rasht — Graph

°F

Rasht temperature yesterday

Maximum temperature yesterday: 64 °F (at 3:30 PM)
Minimum temperature yesterday: 45 °F (at 6:30 AM)
Average temperature yesterday: 54 °F

Past Weeks' High & Low Weather Summary

 TemperatureHumidityPressure
High66 °F (Mar 27, 1:30 PM)100% (Mar 16, 9:30 AM)30.42 "Hg (Mar 16, 9:30 AM)
Low41 °F (Mar 24, 6:30 AM)46% (Mar 27, 1:30 PM)29.83 "Hg (Mar 21, 2:30 PM)
Average51 °F87%30.17 "Hg
* Reported Mar 14 6:30 AM — Mar 29 4:30 AM, Rasht, Weather by CustomWeather, © 2015

Note: Actual official high and low records may vary slightly from our data, if they occured in-between our weather recording intervals... More about our weather records

Advertising

Rasht weather history for previous 24 hours

 ConditionsComfort  
Time TempWeatherWind HumidityBarometerVisibility
4:30 AM
Sun, Mar 29
54 °FFog.No wind88%30.04 "Hg2 mi
3:30 AM54 °FFog.5 mph88%30.07 "Hg2 mi
2:30 AM54 °FFog.No wind94%30.07 "Hg2 mi
1:30 AM54 °FFog.No wind94%30.07 "Hg2 mi
12:30 AM52 °FFog.5 mph100%30.09 "Hg2 mi
11:30 PM
Sat, Mar 28
52 °FFog.5 mph100%30.09 "Hg2 mi
10:30 PM52 °FFog.5 mph100%30.09 "Hg1 mi
9:30 PM52 °FFog.5 mph100%30.09 "Hg1 mi
8:30 PM52 °FFog.7 mph100%30.09 "Hg1 mi
8:00 PM54 °FFog.5 mph94%30.07 "Hg1 mi
7:30 PM54 °FFog.No wind94%30.07 "Hg1 mi
7:00 PM54 °FFog.7 mph94%30.07 "Hg1 mi
6:30 PM54 °FFog.7 mph94%30.07 "Hg1 mi
6:00 PM57 °FFog.5 mph88%30.07 "Hg3 mi
5:30 PM57 °FFog.7 mph88%30.07 "Hg3 mi
5:00 PM63 °FClear.9 mph73%30.07 "Hg4 mi
4:30 PM63 °FClear.7 mph73%30.07 "Hg4 mi
4:00 PM64 °FClear.5 mph73%30.07 "Hg4 mi
3:30 PM64 °FClear.No wind73%30.07 "Hg4 mi
3:00 PM63 °FHaze.7 mph73%30.07 "Hg3 mi
2:30 PM63 °FHaze.No wind73%30.07 "Hg3 mi
2:00 PM63 °FHaze.5 mph68%30.09 "Hg3 mi
1:30 PM63 °FHaze.7 mph68%30.09 "Hg2 mi
1:00 PM59 °FFog.No wind82%30.09 "Hg2 mi
12:30 PM59 °FFog.No wind82%30.09 "Hg2 mi
12:00 PM57 °FFog.5 mph88%30.12 "Hg2 mi
11:30 AM57 °FFog.7 mph88%30.12 "Hg2 mi
11:00 AM57 °FFog.9 mph88%30.09 "Hg2 mi
10:30 AM55 °FFog.7 mph88%30.09 "Hg2 mi
10:00 AM55 °FFog.5 mph82%30.09 "Hg1 mi
9:30 AM52 °FFog.7 mph94%30.09 "Hg1 mi
9:00 AM50 °FFog.No wind94%30.07 "Hg1 mi
8:30 AM50 °FFog.No wind94%30.07 "Hg1 mi
8:00 AM45 °FFog.No wind93%30.04 "Hg1 mi
7:30 AM45 °FFog.No wind93%30.04 "Hg1 mi
7:00 AM45 °FFog.No wind100%30.01 "Hg1 mi
6:30 AM45 °FFog.No wind100%30.01 "Hg3 mi
Weather by CustomWeather, © 2015

See weather overviewHow to use our weather pages